Location: Decatur Area Astronomy Club
(40.0275°N, 88.7810°W)
Time: 05:51:34
(UTC-06:00)

Daily predictions for brighter satellites

Satellite Brightness Start Highest point End
(mag) Time Altitude Azimuth Time Altitude Azimuth Time Altitude Azimuth
Cosmos 2369 Rocket 4.3 03:31:58 22° ENE 03:31:58 22° ENE 03:35:39 10° ESE
Cosmos 1943 4.5 03:57:04 35° ESE 03:57:43 36° ESE 04:02:50 10° NE
Cosmos 1943 Rocket 4.5 03:56:05 15° NNE 03:57:57 17° NE 04:01:27 10° E
CZ-3 R/B 3.9 03:58:02 18° SW 04:09:03 31° S 04:15:17 10° ESE
Cosmos 1536 4.5 04:25:19 10° SSE 04:31:50 14° NNE 04:32:32 10° NNE
Lacrosse 5 3.4 04:31:36 27° NNE 04:31:36 27° NNE 04:34:03 10° NE
Cosmos 1610 Rocket 4.3 04:30:42 10° S 04:36:54 88° W 04:43:13 10° N
Feng Yun 1-1 Rocket 4.1 04:32:19 10° NNE 04:37:54 90° E 04:43:19 10° SSW
Cosmos 44 3.7 04:41:01 61° NNE 04:41:01 61° NNE 04:45:20 10° NNE
USA 215 4.0 04:42:02 10° NE 04:48:20 50° SE 04:54:37 10° SSW
Okean 1-7 Rocket 3.6 04:52:12 77° NE 04:52:21 78° E 04:56:44 10° S
CENTAUR R/B 4.4 04:56:21 16° NNW 04:56:21 16° NNW 04:59:40 10° NNE
Meteor 2-13 Rocket 4.3 04:53:27 10° S 04:59:37 82° W 05:05:48 10° N
Ariane Rocket 4.0 04:57:49 10° NNE 05:02:42 47° E 05:07:33 10° S
Meteor 1-19 Rocket 4.1 05:00:26 24° NNW 05:04:02 77° W 05:09:45 10° S
CRYOSAT 2 4.2 05:00:15 10° S 05:05:07 70° W 05:07:02 37° NNW
Nadezhda 3 Rocket 3.9 05:05:02 10° NNW 05:11:22 70° W 05:17:40 10° S
SKYMED 2 3.5 05:10:21 10° SSE 05:14:41 89° W 05:17:10 25° NNW
Cosmos 2369 Rocket 2.2 05:13:48 39° NW 05:15:42 57° WSW 05:21:14 10° S
Meteor 1-11 Rocket 3.8 05:13:18 10° SSW 05:18:58 53° WNW 05:24:33 10° N
Lacrosse 4 Rocket 2.2 05:19:38 21° N 05:22:04 46° ENE 05:25:59 10° SE
Cosmos 962 Rocket 4.4 05:16:44 10° SSW 05:22:53 69° W 05:29:10 10° N
Cosmos 1025 Rocket 2.9 05:20:52 24° NNW 05:23:24 73° W 05:27:42 10° S
Meteor 2-4 Rocket 3.6 05:20:13 11° NNW 05:25:36 70° W 05:31:18 10° S
Meteor 1-23 Rocket 4.1 05:20:04 10° NNW 05:25:38 81° W 05:31:12 10° S
Meteor 1-5 Rocket 4.0 05:27:33 10° S 05:32:53 85° W 05:38:12 10° N
NOSS 3-1 (C) 4.1 05:28:31 10° SSW 05:34:07 55° ESE 05:40:18 10° NE
SL-24 DEB 4.2 05:33:20 10° S 05:38:06 71° W 05:42:54 10° N
SL-27 R/B 4.1 05:34:51 10° S 05:38:10 38° ESE 05:41:33 10° NE
Abrixas rocket 3.9 05:38:30 20° NNW 05:38:38 20° N 05:41:15 10° NE
Cosmos 1943 3.9 05:39:04 21° WSW 05:41:46 31° WNW 05:46:47 10° N
Cosmos 1943 Rocket 2.0 05:37:39 15° NNW 05:42:18 74° WSW 05:47:47 10° SSE
Meteor 2-19 Rocket 4.4 05:36:28 10° S 05:42:36 89° E 05:48:43 10° N
Cosmos 1452 Rocket 4.0 05:41:22 23° NW 05:43:59 38° WSW 05:48:48 10° SSW
Cosmos 2341 Rocket 4.2 05:38:21 10° SSW 05:44:21 46° WNW 05:50:20 10° N
Meteor 2-8 Rocket 4.4 05:40:33 10° N 05:46:43 75° W 05:52:50 10° S
Helios 1B rocket 4.0 05:46:28 10° SE 05:50:13 35° ENE 05:54:01 10° N
Tiangong 2 2.3 05:52:03 23° WSW 05:53:14 30° SSW 05:56:02 10° SE
Cosmos 158 Rocket 4.0 05:48:35 10° SSW 05:53:53 87° WNW 05:59:19 10° NNE
Cosmos 1544 Rocket 3.5 05:50:36 10° SSW 05:54:54 61° W 05:59:16 10° N
IDEFIX/ARIANE 42P 3.6 05:52:13 10° NNE 05:57:16 49° E 06:02:18 10° S
Cosmos 1656 Rocket 4.0 05:52:57 10° NNW 05:58:38 70° ENE 06:04:18 10° SSE
Cosmos 839 Rocket 4.0 05:52:47 10° NNW 05:59:15 76° WSW 06:05:21 10° SSE
USA 129 1.5 05:57:39 10° S 05:59:48 84° W 06:01:15 18° NNW
SL-24 R/B 4.5 05:55:39 10° N 06:00:34 50° WNW 06:04:51 10° SSW
COSMO-SKYMED 1 3.6 05:59:16 10° SSW 06:02:53 26° W 06:05:46 14° NW
Cosmos 1461 2.9 06:00:06 10° SW 06:04:21 58° NW 06:08:28 10° NNE
USA 229 DEB 4.1 06:01:10 10° WSW 06:07:36 41° NW 06:14:08 10° NNE
USA 229 4.1 06:01:16 10° WSW 06:07:42 41° NW 06:14:14 10° NNE
PAYLOAD A 4.1 06:03:45 10° N 06:09:11 83° WNW 06:14:37 10° SSW
CZ-2C R/B 2.9 06:04:09 10° NNE 06:09:16 68° E 06:14:13 10° S
Okean 2 4.2 06:08:08 10° NNW 06:11:50 31° W 06:15:29 10° SSW
Lacrosse 5 3.6 06:10:50 12° NW 06:13:08 16° NNW 06:16:14 10° NNE
Cosmos 1500 3.1 06:09:55 10° S 06:13:40 90° E 06:17:28 10° N
Cosmos 1743 4.0 06:13:54 10° SSE 06:17:38 45° E 06:21:23 10° NNE
Meteor 1-28 Rocket 4.3 06:17:25 10° SSW 06:20:34 25° W 06:23:46 10° NW
Cosmos 1892 Rocket 4.5 06:18:04 10° NNW 06:21:56 29° W 06:25:47 10° SSW
NOSS 3-1 (A) 3.5 06:16:09 10° SSW 06:21:58 89° ESE 06:28:28 10° NE
CZ-4 R/B 1.3 06:18:21 10° N 06:22:14 63° WNW 06:26:03 10° SSW
Cosmos 1340 4.0 06:22:30 10° NW 06:25:19 20° W 06:28:08 10° SW
SMAP 3.1 06:21:16 10° NNE 06:25:57 86° WNW 06:30:36 10° SSW
Meteor 1-12 Rocket 4.2 06:21:15 10° SSW 06:26:49 62° WNW 06:32:26 10° N
Lacrosse 5 rocket 3.5 06:27:12 10° NNW 06:30:20 19° NNE 06:33:35 10° ENE
USA 215 3.5 06:25:04 10° NE 06:31:18 50° NNW 06:37:32 10° WSW
Cosmos 1066 Rocket 4.2 06:26:23 10° N 06:31:50 84° W 06:37:22 10° S
Cosmos 1626 Rocket 3.6 06:28:07 10° NNW 06:32:31 65° W 06:36:50 10° S
CSL-04 Rocket 4.3 06:28:37 10° N 06:33:31 33° WNW 06:38:20 10° SW
Cosmos 405 Rocket 2.8 06:32:04 10° N 06:35:50 77° E 06:39:32 10° SSE
Ariane Rocket 4.2 06:37:37 10° NNW 06:41:18 21° WNW 06:45:00 10° WSW
Meteor 2-21 4.5 06:35:26 10° SSW 06:41:36 71° W 06:47:49 10° N
